[[{"header":{"parameterUnit":"m.s-1","parameterCategory":1,"la1":30.2992,"la2":30.254,"lo1":-89.0895,"lo2":-89.0443,"dy":0.0025,"dx":0.0025,"nx":19,"ny":19,"refTime":"2026-04-15T03:00:00:Z","depth":0,"parameterNumber":2,"parameterNumberName":"U-component_of_WINDS"},"data":[0,0,0,-1.5798,-1.5799,-1.5859,-1.5859,-1.5925,-1.5926,0,0,0,0,0,0,0,0,0,0,0,-1.5776,-1.5777,-1.5798,-1.5799,-1.5859,-1.5859,-1.5925,-1.5926,0,0,0,0,0,0,0,0,0,0,0,-1.5776,-1.5777,-1.5777,-1.5799,-1.5859,-1.5859,-1.5925,-1.5883,0,0,0,0,0,0,0,0,0,0,-1.5827,-1.5803,-1.5777,-1.5777,-1.58,-1.5859,-1.5859,-1.5881,-1.5886,-1.5895,0,-1.5904,0,-1.5916,-1.593,-1.593,0,0,0,-1.5801,-1.58,-1.582,-1.5777,-1.58,-1.5859,-1.5833,-1.5884,-1.5889,-1.5901,-1.5905,-1.5907,-1.5917,-1.593,-1.593,-1.598,-1.598,0,0,-1.5798,-1.5784,-1.5816,-1.5823,-1.5816,-1.5831,-1.5834,-1.5887,-1.5889,-1.5905,-1.5909,-1.5918,-1.5931,-1.5931,-1.598,-1.598,0,0,0,-1.5787,-1.5782,-1.5801,-1.582,-1.5831,-1.5832,-1.5837,-1.5887,-1.5895,-1.591,-1.5919,-1.5931,-1.5932,-1.598,-1.598,-1.5974,0,0,0,-1.5785,-1.5776,-1.5799,-1.5791,-1.583,-1.5861,-1.5835,-1.5891,-1.5897,-1.5918,-1.5931,-1.5932,-1.598,-1.598,-1.5974,-1.5972,0,0,0,-1.5774,-1.5774,-1.5782,-1.579,-1.5816,-1.586,-1.5871,-1.5893,-1.5903,-1.593,-1.5932,-1.598,-1.598,-1.5974,-1.5972,-1.5982,0,0,0,-1.5757,-1.5774,-1.5782,-1.5804,-1.5815,-1.5857,-1.587,-1.5901,-1.5924,-1.5931,-1.598,-1.598,-1.5974,-1.5972,-1.5981,-1.5987,-1.5988,0,0,-1.5771,-1.5775,-1.579,-1.5798,-1.5835,-1.5848,-1.5884,-1.5916,-1.593,-1.5962,-1.5963,-1.5974,-1.5972,-1.5982,-1.6,-1.6001,0,0,0,-1.5789,-1.58,-1.5813,-1.5835,-1.5862,-1.5884,-1.5913,-1.5925,-1.5954,-1.5945,-1.598,-1.598,-1.5986,-1.5989,-1.5989,-1.5995,-1.5981,-1.5981,-1.5981,-1.5788,-1.5808,-1.5833,-1.5859,-1.588,-1.5911,-1.5929,-1.595,-1.5962,-1.597,-1.5979,-1.5988,-1.5992,-1.5992,-1.5998,-1.5984,-1.5984,-1.5984,-1.5984,-1.581,-1.5828,-1.5845,-1.5875,-1.5895,-1.592,-1.5949,-1.5957,-1.5982,-1.5983,-1.5989,-1.5988,-1.5993,-1.5999,-1.5984,-1.5984,-1.5984,-1.5984,-1.5984,-1.5811,-1.5823,-1.5839,-1.5874,-1.5898,-1.5923,-1.5947,-1.5963,-1.5979,-1.5985,-1.5996,-1.5996,-1.5998,-1.5989,-1.5989,-1.5989,-1.5989,-1.5989,-1.5989,-1.5806,-1.5825,-1.5844,-1.5875,-1.5892,-1.5915,-1.5947,-1.5963,-1.5984,-1.5994,-1.5994,-1.6004,-1.599,-1.5986,-1.599,-1.599,-1.599,-1.599,-1.599,-1.582,-1.582,-1.585,-1.5867,-1.5904,-1.5927,-1.5948,-1.598,-1.5995,-1.6006,-1.6016,-1.6003,-1.6008,-1.6007,-1.6004,-1.6012,-1.6012,-1.6012,-1.6012,-1.582,-1.5826,-1.586,-1.5886,-1.5913,-1.5936,-1.5967,-1.5991,-1.6016,-1.6026,-1.6028,-1.6025,-1.6024,-1.6029,-1.6028,-1.6025,-1.6039,-1.6039,-1.6039,-1.583,-1.5839,-1.5863,-1.589,-1.5921,-1.5946,-1.5976,-1.6003,-1.6031,-1.604,-1.6035,-1.6034,-1.6029,-1.6027,-1.6035,-1.6033,-1.6028,0,0]},{"header":{"parameterUnit":"m.s-1","parameterCategory":1,"la1":30.2992,"la2":30.254,"lo1":-89.0895,"lo2":-89.0443,"dy":0.0025,"dx":0.0025,"nx":19,"ny":19,"refTime":"2026-04-15T03:00:00:Z","depth":0,"parameterNumber":3,"parameterNumberName":"V-component_of_WINDS"},"data":[0,0,0,2.8648,2.865,2.8704,2.8704,2.8779,2.8779,0,0,0,0,0,0,0,0,0,0,0,2.8638,2.8638,2.8648,2.865,2.8704,2.8704,2.8778,2.8779,0,0,0,0,0,0,0,0,0,0,0,2.8637,2.8638,2.8639,2.865,2.8704,2.8704,2.8778,2.8735,0,0,0,0,0,0,0,0,0,0,2.8682,2.8677,2.8638,2.8639,2.865,2.8704,2.8704,2.8733,2.8738,2.8757,0,2.8777,0,2.8779,2.8785,2.8785,0,0,0,2.8646,2.8673,2.8683,2.8639,2.8651,2.8703,2.8678,2.8736,2.8741,2.8764,2.8778,2.878,2.8781,2.8785,2.8786,2.8913,2.8914,0,0,2.8643,2.865,2.8679,2.8687,2.8681,2.8676,2.868,2.8739,2.8754,2.8778,2.8782,2.8782,2.8786,2.8786,2.8912,2.8913,0,0,0,2.8637,2.8648,2.8656,2.8684,2.8693,2.8678,2.8682,2.8752,2.8754,2.8783,2.8783,2.8786,2.8787,2.8911,2.8913,2.8958,0,0,0,2.8635,2.8644,2.8655,2.866,2.8692,2.8724,2.8694,2.875,2.8756,2.8782,2.8786,2.8788,2.8911,2.8912,2.8955,2.8978,0,0,0,2.8632,2.8644,2.8654,2.866,2.8684,2.8722,2.8728,2.8751,2.8757,2.8785,2.8788,2.891,2.8912,2.8952,2.8974,2.9014,0,0,0,2.8631,2.8693,2.8654,2.8724,2.8683,2.8751,2.8727,2.8777,2.8807,2.8787,2.8911,2.8913,2.8952,2.8971,2.9011,2.9048,2.9065,0,0,2.8713,2.8703,2.8744,2.871,2.8787,2.8742,2.8824,2.8845,2.8841,2.8889,2.8892,2.8956,2.8974,2.9013,2.9155,2.9168,0,0,0,2.8772,2.8801,2.882,2.8849,2.8867,2.8883,2.8891,2.8898,2.8939,2.8867,2.8981,2.8991,2.9014,2.9032,2.9043,2.9061,2.8921,2.8921,2.8921,2.8898,2.889,2.8956,2.8954,2.8983,2.899,2.9012,2.9022,2.9006,2.9033,2.9047,2.9134,2.9155,2.9163,2.9183,2.9066,2.9066,2.9067,2.9067,2.9018,2.9057,2.9033,2.9089,2.9079,2.9125,2.9133,2.912,2.916,2.9123,2.9142,2.9102,2.9178,2.9194,2.907,2.9069,2.9069,2.9069,2.9069,2.9099,2.9117,2.9125,2.9166,2.9199,2.9194,2.9234,2.9224,2.9214,2.9234,2.9247,2.9246,2.9244,2.9241,2.9241,2.9242,2.9242,2.9242,2.9242,2.918,2.9188,2.9224,2.9248,2.9265,2.9286,2.9292,2.9308,2.9323,2.9313,2.9313,2.9293,2.9187,2.916,2.9247,2.9246,2.9245,2.9245,2.9245,2.9304,2.9274,2.9329,2.9346,2.9373,2.9405,2.9391,2.9425,2.9436,2.9456,2.9432,2.9355,2.9344,2.9335,2.9313,2.9434,2.9434,2.9434,2.9434,2.9372,2.9366,2.9419,2.9447,2.9473,2.9466,2.9527,2.9532,2.9533,2.9539,2.952,2.949,2.9482,2.9475,2.9463,2.9442,2.9593,2.9594,2.9594,2.9448,2.9443,2.9497,2.9499,2.9518,2.9534,2.9591,2.9623,2.9617,2.96,2.9544,2.9537,2.9488,2.9473,2.9455,2.9436,2.9398,0,0]}]]